{"data":{"norad_id":62748,"epoch":"2026-09-21T00:35:41.589888Z","epoch_age_seconds":125906,"freshness":"FRESH","line1":"1 62748U 25014P   26264.02478692  .00015491  00000+0  57110-3 0  9993","line2":"2 62748  43.0031 134.5012 0001402 263.0176  97.0516 15.27590096 93091","mean_motion":15.27590096,"eccentricity":0.0001402,"inclination_deg":43.0031,"raan_deg":134.5012,"arg_perigee_deg":263.0176,"mean_anomaly_deg":97.0516,"bstar":0.0005711,"rev_number":9309,"period_min":94.266125695018,"perigee_km":482.05693109784,"apogee_km":483.98079920243,"semimajor_km":6861.1558651501,"source":"CELESTRAK","updated_at":"2026-09-22T09:00:49.658589Z"}}